ASTRA 2A                
1 25462U 98050A   19260.50092119 -.00000309  00000-0  00000+0 0  9998
2 25462   0.9794  96.2485 0002704  70.6259 109.6580  1.00274503 77023
SL-12 R/B(2)            
1 25465U 98050D   19259.13890997 -.00000112  00000-0  00000-0 0  9991
2 25465  15.6127 328.8514 5007214 330.1814  46.4482  1.82825724 41233